NOAA 16 DEB, 41430

Orbit data source: Space-Track

NOAA 16 DEB, 41430 is space debris in SSO originally from a launch on Thu, 21 Sep 2000 UTC launched from the Air Force Western Test Range (AFWTR). Debris objects in space refer to the collection of defunct objects orbiting the Earth. Examples of debris include non-operational satellites, rocket bodies, and fragments generated from explosions, collisions, or faulty payload assembly.

Loading next visibility...
Identifier
41430, 2000-055LK
Orbit
SSO
Country
Flag of USUS
Related business
Manufacturer
Unknown
Mission
Spacecraft
Bus & Motor
Unknown
Mass
Unknown
Launch date (UTC)
2000-09-21 (25 years ago)
Launch vehicle
Unknown
Launch site
Air Force Western Test Range (AFWTR)
Object type
Payload
Rocket body
Debris
Shape & HBR
Unknown shape, 0.1 m
Radar Cross Section
Small (<0.1 m²)

Expand to show TLE details & history
Last TLE update: 2 days ago

TLE from 2 days ago
0 NOAA 16 DEB
1 41430U 00055LK  25292.48598268  .00014790  00000-0  40374-2 0  9993
2 41430  99.0107 129.0598 0033630 139.4249 220.9457 14.47068457507288
Epoch: 2025-10-19T11:39Z
TLE epoch observation values (Epoch: 2025-10-19T11:39:48.903Z)
Latitude
-0.00004°
Longitude
-74.09592°
Altitude
756.288 km
Speed
7.467 km/s
True Right ascension
08h 36m 14s
True Declination
0° 00' 00"
Sunlit
Object was in daylight at epoch
Visualization orbit readout
Latitude
Unknown
Longitude
Unknown
Altitude
Unknown
Speed
Unknown
Apparent Right ascension
Unknown
Apparent Declination
Unknown
Sunlit
N/A
Visualization observer readout
Local Sidereal Time
19:27:30
Azimuth
Unknown
Elevation
Unknown
Doppler factor
Unknown
Orbital elements
Apogee altitude
756.289 km
Perigee altitude
708.464 km
Semi-major axis
7,110.514 km
Eccentricity
0.00336
Inclination
99.0107°
RAAN
129.0598°
Arg. of periapsis
139.4249°
True anomaly
220.69395°
Mean anomaly
220.9457°
Eccentric anomaly
220.81974°
Mean motion
3.61986 °/min
Orbital period
99.45 mins
BSTAR
0.0040374
Loading maneuver chart data...
Computing Atmospheric mass density...
Loading historical data...
Loading historical data...
Loading historical data...
Loading historical data...
Loading historical data...
Loading historical data...
Loading historical data...

Documentation

Showing up to 5 results
|